Regional Weather Roundup
Issued by NWS Albany, NY

Home | Current Version | Previous Version | Graphics & Text | Print | Product List | Glossary On
Versions: 1 2 3 4 5 6 7 8 9 10 11 12 13 14 15 16 17 18 19 20 21 22 23 24 25 26 27 28 29 30 31 32 33 34 35 36 37 38 39 40 41 42 43 44 45 46 47 48 49 50
000
ASUS41 KALY 210710
RWRALY

NEW YORK STATE HOURLY WEATHER ROUNDUP
NATIONAL WEATHER SERVICE ALBANY NY
200 AM EST SUN DEC 21 2014

NOTE: "FAIR" INDICATES FEW OR NO CLOUDS BELOW 12,000 FEET WITH NO
SIGNIFICANT WEATHER AND/OR NO OBSTRUCTIONS TO VISIBILITY.

NYZ032-033-038>043-046>054-057>066-NYZ062>081-210800-
EAST


CITY           SKY/WX    TMP DP  RH WIND       PRES   REMARKS
ALBANY         FLURRIES  28  20  71 N3        30.32R
GLENS FALLS    CLOUDY    24  19  81 CALM      30.31R
POUGHKEEPSIE   LGT SNOW  29  23  78 NE3       30.29S
MONTGOMERY     CLOUDY    28  24  85 NE3       30.27S
WHITE PLAINS   CLOUDY    29  24  82 NW6       30.25F WCI  23
ISLIP          CLOUDY    33  24  69 NW6       30.26S WCI  28
NEW YORK CITY  CLOUDY    32  23  69 N5        30.28S WCI  27
CENTRAL PARK   CLOUDY    31  21  66 VRB3      30.30S
$$

NYZ005>009-017-018-044>046-055-056-210800-
CENTRAL


CITY           SKY/WX    TMP DP  RH WIND       PRES   REMARKS
FULTON         CLOUDY    25  20  81 CALM      30.28S
SYRACUSE       CLOUDY    25  23  92 E5        30.29R WCI  19
ROME           CLOUDY    25  20  81 E6        30.31S WCI  18
ELMIRA         CLOUDY    28  21  75 W3        30.25S
BINGHAMTON     CLOUDY    24  20  84 CALM      30.21R
MONTICELLO     CLOUDY    27  23  86 CALM      30.21F
$$

NYZ026>034-041>043-210800-
NORTH


CITY           SKY/WX    TMP DP  RH WIND       PRES   REMARKS
WATERTOWN      CLOUDY    24  18  77 CALM      30.30R
FORT DRUM      NOT AVBL
MASSENA        FOG       14  12  92 E6        30.36R VSB 3/4 WCI   5
SARANAC LAKE   CLOUDY    12  32 100 CALM      30.20S
PLATTSBURGH    CLOUDY    16  13  88 N7        30.34S WCI   6
$$

NYZ001>004-010>016-019>021-210800-
WEST


CITY           SKY/WX    TMP DP  RH WIND       PRES   REMARKS
NIAGARA FALLS  CLOUDY    26  23  88 CALM      30.25S
BUFFALO        CLOUDY    29  24  82 CALM      30.25S
DUNKIRK        CLOUDY    29  23  78 S7        30.26S WCI  22
JAMESTOWN      CLOUDY    25  19  80 S5        30.20S WCI  19
WELLSVILLE     CLOUDY    24  21  88 CALM      30.19S
ROCHESTER      CLOUDY    29  24  82 SW3       30.27R
PENN YAN       CLOUDY    28  22  78 CALM      30.25R
$$

             KEY
       WCI = WIND CHILL INDEX
       VSB = VISIBILITY
       HX  = HEAT INDEX
$$



USA.gov is the U.S. government's official web portal to all federal, state and local government web resources and services.